Weather in Talcahuano

Chile     36°43′41″S   73°06′33″W
temp.,
°C
wind,
m/s
gust,
m/s
humid.,
%
clouds,
%
prec.,
mm/h
press.,
hPa
HPBL,
m
15 may, sat
sat1523:00+11sse2287100 0.0 101942
02:00+11se2287100 0.0 101855
05:00+11se1287100 0.0 101746
08:00+10se118842 0.0 101838
11:00+14w127187 0.0 1019227
14:00+15w33670 0.0 1018286
17:00+14w12740 0.0 101975
20:00+11ssw11860 0.0 102010
16 may, sun
sun1623:00+10se22820 0.0 102051
02:00+10se2383100 0.0 102072
05:00+9ese23847 0.0 102068
08:00+8se358379 0.0 1020102
11:00+14sse24589 0.0 1019177
14:00+17ssw2345100 0.0 1016250
17:00+14sw2262100 0.0 101611
20:00+13sse1163100 0.0 101610
17 may, mon
mon1723:00+12ese1161100 0.0 101610
02:00+12e2258100 0.0 101620
05:00+12se225899 0.0 101530
08:00+11ese2359100 0.0 101550
11:00+15sse1251100 0.0 1015104
14:00+16wsw114998 0.0 1014142
17:00+15wsw1155100 0.0 101311
20:00+13se1158100 0.0 101411
18 may, tue
tue1823:00+12ese2257100 0.0 101318
02:00+11se2258100 0.0 101226
05:00+11ese2358100 0.0 101144
08:00+10ese2258100 0.0 101243
11:00+14n1350100 0.0 1013147
14:00+14n3766100 0.0 1012315
17:00+13n3773100 0.0 1012227
20:00+11ne3678100 0.0 1012132
19 may, wed
wed1923:00+11ene2374100 0.0 101350
02:00+13ne41265100 0.0 1012377
05:00+13nne61572100 0.3 1011600
08:00+13n71491100 1.8 1013731
11:00+13nne41092100 0.5 1015424
14:00+13n4993100 1.6 1014489
17:00+13n41093100 1.1 1014503
20:00+13n5109599 2.6 1016546